Hourly Data Report for October 05, 2017

All times are specified in Local Standard Time (LST). Add 1 hour to adjust for Daylight Saving Time where and when it is observed.

FORT LIARD
NORTHWEST TERRITORIES

60°14'00.000" N
123°28'00.000" W
213.40 m
2201579
71497
WJL

Download Data

Hourly Data (October 2017)
Hourly Data Report for October 5, 2017
Temp Definition
°C
Dew Point Temp Definition
°C
Rel Hum Definition
%
Wind Dir Definition
10's deg

Wind Spd Definition
km/h
Visibility Definition
km
Stn Press Definition
kPa
Hmdx Definition


Wind Chill Definition


Weather Definition


TIME
00:00 3.9 2.9 93 5 2   98.65     LegendNANA
01:00 3.7 3.1 96 0 1   98.61     LegendNANA
02:00 4.6 3.7 94 22 8   98.55     LegendNANA
03:00 4.8 3.3 90 18 8   98.47     LegendNANA
04:00 5.1 4.5 96 22 12   98.38     LegendNANA
05:00 2.6 1.8 95 19 6   98.34     LegendNANA
06:00 5.6 4.5 93 20 15   98.24     LegendNANA
07:00 6.7 5.0 89 22 12   98.20     LegendNANA
08:00 9.5 4.6 71 22 18   98.14     LegendNANA
09:00 9.6 5.0 73 23 14   98.10     LegendNANA
10:00 10.6 5.2 69 22 11   98.03     LegendNANA
11:00 11.5 5.7 68 23 12   97.96     LegendNANA
12:00 14.3 4.9 53 22 8   97.86     LegendNANA
13:00 17.8 0.2 30 25 14   97.82     LegendNANA
14:00 18.7 0.1 29 25 15   97.75     LegendNANA
15:00 18.8 0.0 28 25 11   97.71     LegendNANA
16:00 18.1 -1.1 27 24 14   97.70     LegendNANA
17:00 17.0 -0.5 30 23 16   97.61     LegendNANA
18:00 16.1 -0.2 33 24 10   97.55     LegendNANA
19:00 15.5 0.0 35 23 13   97.50     LegendNANA
20:00 13.7 1.1 42 22 13   97.40     LegendNANA
21:00 13.7 0.7 41 25 5   97.34     LegendNANA
22:00 8.9 2.1 63 4 1   97.27     LegendNANA
23:00 6.3 2.6 77 1 3   97.17     LegendNANA

Notes on Data Quality.

Legend

  • E = Estimated
  • M = Missing
  • NA = Not Available
  • ‡ = Partner data that is not subject to review by the National Climate Archives
Date modified: